Wind_Speed
46 46 45 44 43 42 41 41 41 40 39 38 37 37 36 35 35 34 34 33 32 32 31 31 30 29 28 28 27 27 27 27 27 27 26 25 25 24 23 22 21 20 19 19 18 17 17 16 16 15 14 13 12 12 11 11 10 9 8 8 8 7 7 6 4 3 2 3 4 4 3 3 3 3 4 4 5 6 6 7 7 7 8 7 7 8 8 9
48 47 47 46 45 44 43 42 42 41 40 39 39 38 37 37 36 36 36 35 35 34 33 32 32 31 30 29 29 29 29 28 28 27 27 26 25 24 23 23 22 21 20 19 18 18 17 16 16 15 15 14 13 12 12 12 11 10 9 9 9 8 7 6 5 4 3 3 4 6 5 5 5 5 4 4 6 6 6 7 7 8 9 9 8 8 8 9
49 49 48 48 47 46 45 44 43 42 42 41 41 40 39 38 38 37 37 37 37 36 35 34 33 33 32 31 31 30 30 29 29 28 27 26 25 25 24 23 22 21 21 20 19 18 18 17 16 16 15 15 14 13 13 13 12 11 10 10 10 9 8 7 6 6 5 5 5 7 8 8 8 8 6 5 7 7 7 7 8 8 9 9 9 9 9 9
50 50 49 49 49 48 47 46 45 44 43 43 42 42 41 40 39 39 38 38 38 38 37 36 35 34 34 33 32 31 31 30 30 29 28 27 26 25 24 24 23 22 21 21 20 19 18 18 17 17 16 15 14 14 14 14 13 12 11 11 11 10 9 9 9 8 7 7 6 8 9 9 10 10 8 7 8 8 7 7 8 8 9 10 10 11 11 11
51 51 51 50 50 50 49 48 46 46 45 44 44 43 42 41 40 40 40 39 39 39 38 38 37 36 35 35 34 33 32 31 31 30 28 27 27 26 25 24 23 23 22 21 21 20 19 19 18 18 17 16 16 15 15 15 15 14 13 12 12 12 11 10 11 10 9 8 7 8 10 10 11 11 9 8 8 9 8 8 9 9 10 10 11 12 13 14
52 52 52 51 51 51 50 49 48 47 46 46 45 45 44 43 42 41 41 40 40 39 39 39 38 38 37 36 35 34 33 33 32 30 29 28 27 26 26 25 24 24 23 22 22 21 21 20 19 19 18 18 17 17 17 17 16 15 14 13 13 13 12 12 13 12 10 9 8 9 10 10 11 12 10 9 10 10 10 10 10 11 12 12 13 14 15 16
52 52 52 52 52 52 52 51 50 49 48 47 46 46 45 44 43 42 41 41 41 40 40 39 39 39 38 38 36 35 34 34 33 31 30 28 28 27 26 26 25 25 24 24 23 23 22 22 20 20 19 19 19 19 18 18 18 17 16 14 14 14 13 13 14 13 11 9 9 10 10 10 12 13 12 12 13 13 13 12 12 14 15 16 16 17 18 18
53 52 52 53 53 53 52 52 52 51 50 48 48 47 46 45 44 43 43 42 41 41 40 40 40 40 40 39 38 36 36 35 33 31 30 29 28 28 27 27 26 26 25 25 25 25 24 23 22 21 21 21 20 20 20 19 19 18 17 16 15 15 15 15 15 14 11 10 10 11 11 11 13 15 15 14 15 16 16 16 15 16 18 19 20 21 21 22
53 53 52 53 53 53 53 53 53 52 51 50 49 48 47 46 45 44 44 43 42 42 41 41 40 40 40 40 39 38 37 36 34 32 31 29 29 29 29 28 28 27 27 27 27 27 26 25 24 23 22 22 22 22 21 21 19 18 17 17 16 16 16 17 17 15 12 10 11 12 12 12 14 16 16 16 17 18 19 18 18 19 20 21 23 23 24 24
54 53 53 53 53 53 54 54 54 53 52 51 50 49 48 47 46 45 44 44 43 43 42 41 41 41 41 41 41 39 37 37 35 33 32 31 30 30 30 29 29 29 28 28 28 28 28 27 26 25 24 24 24 23 23 22 20 19 18 17 17 17 17 18 18 16 13 12 13 13 12 13 15 17 18 17 17 19 20 20 20 21 22 23 25 25 26 26
55 54 53 53 53 53 54 54 54 54 53 53 52 50 49 48 47 46 45 44 44 44 43 42 42 42 42 42 41 39 38 39 37 34 33 32 31 31 31 31 30 30 30 30 30 29 29 28 27 26 26 26 26 25 24 23 21 19 18 17 17 18 18 19 19 17 14 14 14 14 14 15 16 18 19 18 18 20 21 22 22 23 24 25 26 27 28 27
57 56 55 54 54 53 54 54 55 55 54 54 53 52 51 49 48 47 46 45 45 44 44 43 43 43 42 43 41 39 39 39 38 36 34 33 32 32 32 32 31 31 31 31 31 31 30 30 29 28 28 28 27 26 26 24 22 20 19 18 19 19 20 20 19 17 15 15 16 16 16 16 18 19 20 20 20 21 22 23 24 25 26 27 28 28 28 27
58 57 56 56 55 54 54 54 55 55 55 54 53 53 52 51 49 48 47 47 46 45 45 44 44 43 43 43 42 40 40 40 39 37 36 35 34 34 33 33 33 32 32 32 32 32 31 31 30 30 30 30 29 28 27 25 23 21 20 20 21 21 21 20 18 17 16 16 17 18 18 18 19 20 21 21 22 24 24 24 25 26 27 28 28 27 27 26
59 58 58 57 56 56 55 55 55 55 55 54 54 53 53 52 51 50 49 48 47 47 46 45 45 44 44 45 43 41 40 40 39 38 37 36 36 35 34 33 33 34 34 34 34 33 33 32 31 32 32 31 31 29 28 26 24 22 21 23 24 23 21 19 18 17 17 18 19 19 20 20 20 21 22 23 25 26 26 26 27 27 27 27 27 26 25 24
60 59 59 58 58 57 57 56 56 56 55 55 54 54 53 52 52 51 50 49 49 48 47 47 46 45 45 45 44 41 41 40 39 39 38 38 37 36 35 34 34 35 35 35 35 34 34 33 33 33 33 33 32 31 29 26 24 23 23 26 27 25 22 20 19 18 18 19 20 21 22 23 22 23 24 25 27 28 28 28 27 27 26 25 25 24 23 24
60 60 60 59 59 58 58 57 57 57 56 55 55 54 54 53 52 52 51 50 50 49 48 47 47 46 45 45 44 42 41 40 40 40 40 39 37 37 36 35 35 36 36 36 35 35 35 34 34 34 35 34 34 31 28 26 25 25 26 29 28 25 23 21 20 19 19 20 22 23 25 25 24 25 27 27 28 28 28 27 26 25 25 24 23 23 23 24
60 60 60 60 60 59 59 59 58 58 57 56 56 55 55 54 54 53 52 52 51 50 49 48 48 46 44 45 44 43 42 40 41 41 40 39 38 38 37 36 36 36 37 36 36 36 36 35 35 35 36 36 35 31 27 26 28 28 29 30 29 26 25 23 22 21 20 21 23 24 27 28 26 27 28 27 27 28 27 26 25 24 24 23 22 22 22 23
60 60 60 60 60 59 59 59 59 59 58 57 56 56 56 55 55 54 54 53 52 52 50 49 49 45 44 46 46 45 43 41 42 41 40 40 40 39 38 38 37 37 37 37 37 37 36 36 36 37 39 38 34 29 27 29 30 30 31 31 29 28 27 26 24 22 22 22 24 27 29 30 29 28 27 27 26 26 26 25 24 24 23 23 22 22 22 24
61 60 59 59 59 59 59 60 60 59 58 57 57 57 56 56 55 55 55 55 54 53 51 50 48 46 46 48 48 46 44 42 42 41 41 41 41 40 40 39 39 39 38 38 38 37 37 37 37 40 42 37 32 30 30 31 32 31 32 31 31 30 29 29 25 23 23 24 26 28 30 33 30 27 27 27 27 25 24 24 24 24 24 23 22 23 24 26
61 60 59 59 59 59 59 60 60 60 59 58 58 57 57 56 56 56 56 55 55 53 51 49 49 48 47 48 49 47 45 43 42 42 42 43 42 41 41 41 41 40 40 39 38 38 38 37 39 44 41 35 32 33 33 33 33 32 32 32 32 32 32 30 26 25 25 25 28 30 31 34 32 28 27 28 27 25 24 24 24 25 24 24 24 25 27 28
62 59 58 58 59 59 59 59 59 60 59 58 58 57 57 58 57 57 56 56 55 53 51 50 49 48 49 49 49 48 46 44 43 44 44 44 43 42 42 43 42 42 41 40 39 40 39 38 43 45 39 35 35 35 35 35 34 34 34 34 33 34 35 32 28 27 27 26 30 32 31 34 34 30 29 29 28 26 24 25 26 26 26 26 27 28 28 29
65 62 59 58 58 58 58 59 59 59 58 57 58 58 59 59 58 57 57 55 54 53 51 50 49 49 50 50 49 49 47 46 46 45 45 45 44 44 45 44 44 43 42 40 41 42 39 40 45 44 38 38 38 36 37 36 36 36 35 35 35 37 36 34 32 30 29 28 30 32 31 34 35 33 32 31 29 27 26 28 28 28 29 29 29 30 30 31
66 65 64 61 59 58 57 57 58 57 57 57 58 59 59 60 59 58 57 55 53 53 51 50 49 49 50 50 50 50 48 48 48 47 47 47 47 47 46 46 45 44 42 43 44 42 40 42 45 42 40 40 39 38 38 38 38 38 36 36 37 39 37 35 35 33 32 31 32 33 32 34 36 34 34 34 31 30 29 30 31 31 32 31 31 32 33 35
68 67 66 65 64 62 61 60 58 56 56 57 58 60 60 59 59 58 58 55 52 52 52 50 49 50 51 51 51 50 49 50 50 49 49 49 49 48 47 48 46 44 45 47 45 41 40 43 45 44 43 41 40 40 40 39 40 39 38 37 39 40 38 37 37 36 34 33 34 34 32 34 38 36 36 36 34 33 33 33 34 34 34 34 35 36 37 38
71 70 68 67 65 64 65 63 61 61 61 60 59 60 60 59 60 59 58 55 50 50 52 51 50 50 51 51 50 51 52 51 51 52 52 52 52 50 49 49 47 46 49 49 45 42 42 44 46 46 45 42 41 41 42 42 42 40 39 39 40 41 40 40 39 37 36 35 37 36 32 34 39 40 38 38 38 37 36 37 37 38 38 38 39 40 42 42
75 74 71 69 67 65 64 60 61 65 66 66 65 64 62 61 61 60 60 57 48 45 50 51 49 49 50 51 52 54 53 50 53 55 54 54 54 52 51 50 49 50 51 51 46 42 44 47 47 46 45 44 42 43 45 45 42 39 41 43 43 43 43 42 40 39 37 37 39 38 36 34 38 43 43 41 41 40 41 41 41 42 42 43 45 45 46 47
77 75 73 71 69 68 65 61 62 64 65 68 69 68 67 66 65 62 62 59 48 42 47 50 49 48 49 52 53 55 52 51 57 58 57 57 56 54 52 51 52 52 53 52 46 44 48 49 47 47 46 45 44 46 48 47 42 40 43 46 45 45 45 43 42 41 39 38 38 41 41 36 37 45 47 45 45 44 45 46 46 46 48 48 49 50 50 51
77 77 75 73 72 71 68 66 66 64 65 67 67 68 69 69 68 66 66 61 47 41 46 49 49 48 48 51 53 55 53 54 59 59 58 59 56 55 54 53 54 54 53 52 48 47 50 49 48 49 47 46 47 49 49 47 44 42 44 47 47 48 47 45 44 43 41 39 38 42 46 39 36 45 49 47 49 49 49 50 50 51 52 52 53 54 55 55
79 79 77 76 75 73 71 68 67 68 68 68 67 67 68 69 69 69 69 60 46 42 46 48 49 49 49 51 53 55 55 56 59 60 60 60 58 57 56 55 55 54 54 53 50 50 50 50 50 50 48 48 50 50 49 48 46 45 46 48 49 50 48 47 46 44 44 40 39 45 49 43 38 43 51 52 52 53 53 54 54 55 56 56 57 58 59 60
83 82 81 79 76 74 72 69 68 71 71 71 70 70 70 69 69 71 68 56 47 46 47 48 50 52 52 53 53 54 55 56 58 60 61 61 60 59 57 57 56 55 55 54 52 52 52 52 52 50 50 50 50 50 50 50 48 47 48 48 50 51 50 49 47 47 45 40 43 50 52 47 39 41 53 57 56 57 57 57 58 58 59 61 62 63 63 63
87 86 85 82 79 76 73 70 71 74 74 74 73 73 72 70 71 71 62 51 51 50 48 51 52 52 54 55 56 56 56 56 57 59 60 61 61 59 58 59 57 57 56 55 55 55 54 53 53 52 52 52 52 52 52 52 51 50 50 50 51 51 50 49 48 48 47 44 48 54 53 49 42 43 54 59 60 62 61 61 61 62 63 65 66 66 66 67
89 89 88 85 82 79 75 73 75 76 76 75 76 75 73 73 74 67 55 51 55 52 49 54 54 53 56 57 58 58 58 58 57 57 58 59 60 60 60 60 59 59 57 57 59 58 56 55 54 54 54 54 55 54 53 53 53 53 52 51 52 52 50 50 50 51 51 49 51 54 54 50 47 50 56 58 62 64 64 64 65 66 67 68 69 70 70 71
91 90 90 87 84 80 77 76 78 79 78 78 79 78 76 77 71 59 53 56 58 54 53 56 57 58 59 59 59 60 60 59 58 58 58 58 58 59 60 61 61 61 60 59 60 59 57 56 56 56 56 56 56 55 54 54 54 54 53 54 54 53 52 52 53 54 53 52 53 54 54 52 51 55 59 60 62 64 65 67 68 69 71 71 72 73 74 74
90 91 91 88 84 81 79 79 80 81 81 81 82 80 80 78 66 55 56 59 58 56 57 58 61 63 62 61 61 61 61 60 60 61 60 60 59 58 59 61 62 63 63 62 61 60 59 57 58 58 57 57 56 55 55 55 54 53 54 55 54 55 56 55 56 56 55 55 55 54 55 53 54 58 61 62 63 65 67 68 69 71 72 74 75 76 77 76
87 90 91 89 85 82 80 81 82 83 83 83 83 84 82 75 62 56 59 58 57 58 59 61 65 66 66 65 63 63 63 62 62 63 62 61 60 59 60 60 62 63 64 64 63 62 60 57 58 60 58 58 57 57 56 55 54 53 54 54 54 58 59 57 57 57 57 57 56 55 56 55 56 59 61 63 65 67 69 69 71 73 75 77 79 79 79 78
88 90 91 89 84 82 82 82 84 85 85 85 87 86 79 68 61 60 61 60 62 62 62 65 67 67 67 66 65 65 65 65 65 64 63 62 61 60 60 61 62 63 64 65 65 63 60 58 59 60 59 59 59 58 58 57 55 54 53 53 57 60 60 57 57 57 58 58 55 55 57 57 59 60 61 64 67 69 70 71 73 75 78 80 81 81 80 80
93 93 93 89 84 83 84 85 86 87 88 88 89 84 74 67 65 65 64 64 65 65 66 68 67 66 65 65 66 67 68 68 66 65 64 63 61 59 59 60 62 62 63 66 65 63 62 60 60 61 60 60 61 60 59 58 57 56 55 57 61 61 58 58 58 57 58 57 54 55 57 58 60 61 62 65 68 69 71 73 75 78 80 82 82 82 82 83
97 97 96 93 87 85 85 87 89 89 89 91 91 83 73 69 68 67 67 67 67 68 69 68 67 67 67 66 67 68 69 68 65 65 64 63 61 58 58 60 61 61 64 66 65 63 63 62 61 61 61 61 62 62 60 59 59 60 60 62 62 61 60 61 60 58 59 58 56 56 58 59 61 63 65 67 69 71 73 76 79 81 82 83 84 84 84 84
101 102 100 95 91 88 88 89 91 93 93 94 91 81 72 70 69 69 70 70 70 72 71 69 69 69 68 66 67 69 69 67 65 65 64 63 62 59 59 61 61 62 64 66 65 63 62 62 61 61 63 63 63 62 61 62 64 64 63 63 63 62 63 63 64 63 63 63 61 60 61 62 64 67 68 70 72 74 77 80 83 84 85 85 86 86 86 85
103 104 101 96 93 92 92 93 95 97 97 95 90 79 72 72 72 72 73 73 74 75 72 71 72 70 67 66 67 68 68 67 66 66 65 64 63 62 62 64 64 66 68 69 66 62 61 60 60 62 63 63 62 63 64 65 66 65 64 64 65 66 66 67 67 67 67 67 66 66 65 64 67 70 72 74 76 78 81 84 86 86 86 86 87 86 86 85
105 105 102 98 97 95 96 99 100 99 98 95 87 78 74 75 74 73 74 75 75 75 74 73 73 71 68 67 67 68 68 67 66 67 66 64 63 64 65 67 69 70 71 70 67 63 62 63 62 62 61 60 61 63 65 65 65 65 66 65 66 68 69 69 69 70 71 72 72 71 70 68 70 73 74 77 79 81 84 86 87 87 87 87 87 86 86 85
108 107 103 101 100 98 99 103 102 100 99 94 84 78 78 78 77 75 75 76 77 76 75 74 73 72 71 69 69 69 69 67 66 67 67 65 66 67 68 70 71 71 72 71 68 66 67 68 66 64 62 62 63 64 65 65 65 66 65 65 67 70 71 72 72 72 74 74 74 74 72 71 72 75 76 78 80 83 85 87 88 88 88 88 87 86 86 85
111 109 105 103 103 102 103 106 105 103 100 92 85 84 84 81 80 79 78 78 78 77 75 74 73 73 73 72 71 70 69 69 69 68 68 68 69 69 71 72 71 72 73 72 70 71 73 72 70 68 66 66 67 66 65 65 65 65 65 67 70 71 72 74 73 74 74 73 73 75 74 72 73 75 76 78 80 84 86 88 89 90 89 88 87 87 86 84
111 110 108 106 104 104 106 108 107 104 99 92 90 90 87 83 82 81 79 79 79 78 77 75 74 75 76 75 74 71 71 72 71 70 71 71 70 71 73 73 73 73 74 74 74 75 76 75 74 72 70 69 68 67 66 66 67 68 69 70 71 71 73 74 74 75 74 71 73 76 74 72 74 75 76 77 80 83 85 87 88 88 87 86 86 85 84 84
109 109 109 108 106 106 107 107 106 104 100 97 97 95 90 86 85 83 83 83 82 81 80 78 77 77 78 78 75 72 72 72 72 72 73 72 71 72 74 75 74 75 76 76 76 76 78 78 76 75 72 70 70 70 69 71 72 72 70 70 70 71 73 74 75 75 72 70 73 75 75 75 77 78 78 79 81 83 84 85 85 84 84 84 84 83 83 85
109 109 110 110 109 107 106 105 106 106 104 103 101 98 94 89 85 85 87 87 85 84 83 82 81 81 81 79 76 74 73 73 74 74 73 72 72 73 75 76 76 76 77 78 77 78 80 80 78 78 77 75 75 74 73 74 74 72 70 71 71 72 73 74 75 73 72 73 73 72 75 77 78 80 82 81 82 84 83 83 83 83 83 84 83 83 85 89
109 110 110 111 111 109 106 106 107 106 104 104 103 100 97 92 88 88 90 89 86 86 86 86 84 82 80 79 78 78 77 76 77 76 74 74 75 76 77 77 77 77 78 79 80 81 82 82 80 80 81 81 80 79 77 77 76 74 73 73 73 75 76 77 77 76 77 78 73 70 75 79 78 82 84 83 84 85 85 85 85 84 85 85 85 87 90 95
110 110 110 111 111 109 106 104 105 105 103 103 104 102 100 97 93 91 90 88 88 89 89 89 85 82 80 81 82 83 82 80 79 76 76 77 78 80 80 80 81 81 80 82 85 86 86 84 83 84 85 85 85 84 81 80 79 78 76 76 76 78 79 80 80 80 81 80 75 74 79 80 80 84 86 85 87 88 87 87 87 87 87 87 89 92 96 98
111 109 109 111 111 109 106 104 104 105 104 103 103 102 101 99 95 92 90 90 90 90 90 89 85 82 82 84 86 87 85 83 80 78 79 81 82 83 84 84 84 84 85 86 88 90 90 88 87 88 89 88 88 87 85 84 83 81 79 79 78 79 81 83 84 85 84 82 80 81 84 82 82 86 88 89 91 92 91 90 89 89 89 90 92 95 96 97
111 110 110 111 111 110 107 106 106 106 105 104 103 102 101 99 95 92 92 92 91 90 90 89 85 84 85 87 89 90 87 83 82 82 83 84 85 85 85 86 86 87 89 89 90 92 92 91 90 91 92 92 90 89 89 87 85 84 82 80 79 80 84 86 87 87 87 86 85 88 88 84 83 88 91 92 93 93 93 93 91 91 90 91 93 94 95 95
112 111 111 112 111 110 109 107 108 107 107 106 104 102 100 98 94 93 93 93 92 91 91 90 87 87 89 90 92 91 87 85 86 87 87 87 87 87 88 89 89 90 91 92 92 93 93 93 92 93 95 93 91 91 91 89 89 88 83 80 81 83 87 90 90 91 91 89 90 92 89 85 86 90 92 92 93 93 93 92 92 92 92 92 93 94 95 95
113 112 112 113 113 112 111 109 109 109 109 108 105 102 102 100 96 95 96 95 93 93 92 91 90 91 92 92 92 90 88 89 91 91 91 91 91 91 92 93 92 92 93 94 95 95 95 95 94 95 96 95 93 92 92 92 95 91 82 80 85 89 91 93 92 91 91 92 93 93 90 88 90 91 92 93 93 93 93 92 92 92 92 92 93 94 95 94
Wind_Direction
235 235 235 235 236 236 237 238 238 239 240 240 241 242 244 246 247 249 250 252 253 255 256 257 258 259 260 261 263 265 266 267 267 268 269 270 272 273 274 274 275 275 275 275 275 275 275 276 276 276 277 276 276 277 278 277 277 278 278 279 282 282 283 284 282 285 299 315 310 300 299 305 307 312 321 319 301 294 296 295 296 297 296 294 291 289 289 289
235 235 235 235 236 236 237 238 239 239 240 241 242 243 244 245 246 248 250 251 253 254 256 257 258 259 260 262 263 264 265 266 267 267 267 268 270 271 272 272 272 272 272 272 271 271 272 272 272 273 272 271 270 270 270 270 270 270 270 272 274 276 277 276 271 267 275 292 298 295 294 299 299 301 312 311 299 295 292 287 284 284 287 287 284 284 284 283
236 236 236 236 236 236 237 238 239 239 240 241 242 243 244 244 245 247 249 250 252 253 255 256 258 259 260 261 262 263 264 265 266 266 266 267 268 269 270 270 270 270 270 270 269 269 269 269 269 269 268 267 266 265 265 266 266 265 265 267 270 272 273 271 265 260 265 272 282 285 289 294 294 293 297 295 293 294 289 284 280 276 277 282 284 285 284 283
236 237 237 237 237 237 237 238 238 239 240 241 242 243 243 244 245 246 247 249 250 252 253 255 256 258 259 261 262 263 263 264 265 265 265 266 267 267 267 268 268 268 268 268 268 268 268 268 268 267 266 265 264 263 263 263 263 263 264 266 268 269 270 270 265 262 264 267 273 280 283 287 288 285 287 289 290 295 296 292 287 280 276 277 281 284 285 286
237 237 237 238 238 238 238 238 239 239 240 241 242 243 243 244 244 246 247 248 249 251 252 253 255 257 258 260 261 262 263 264 264 264 264 265 265 266 266 267 266 266 267 267 268 268 267 266 266 266 266 265 263 262 262 263 262 262 263 265 268 268 268 269 266 264 266 268 269 276 279 281 281 277 278 283 285 291 296 300 300 295 288 281 280 283 287 291
238 238 238 238 239 239 239 239 239 240 241 241 242 243 244 244 245 245 247 248 250 251 252 253 254 256 257 259 260 261 263 263 263 263 264 264 265 265 266 266 266 266 266 267 267 267 266 265 265 264 265 265 264 263 264 264 264 265 265 266 269 269 268 269 267 265 267 270 269 273 275 277 277 273 272 277 280 282 286 292 300 303 300 296 290 288 288 291
239 239 239 239 239 239 239 240 240 240 241 242 243 244 244 245 246 246 247 248 250 251 252 253 254 255 257 258 259 260 262 263 263 264 265 265 265 265 265 265 266 266 266 266 266 266 265 264 264 264 265 265 265 264 264 265 266 267 267 268 270 272 271 269 267 266 268 271 270 267 267 272 276 274 272 276 280 279 280 284 292 299 302 303 303 301 299 298
239 239 240 240 240 240 240 240 241 241 241 242 243 244 245 246 247 247 248 249 250 252 253 254 255 256 257 258 259 260 262 263 263 265 265 265 265 265 265 264 264 265 265 265 265 264 264 264 264 263 264 264 264 264 263 265 266 267 269 270 271 273 273 269 267 267 269 270 266 262 262 270 277 277 276 279 282 283 281 283 289 296 302 306 308 308 308 307
238 239 240 241 241 241 241 241 241 242 242 243 244 244 245 246 247 248 249 250 251 252 253 255 256 257 257 258 259 260 261 263 263 264 265 265 265 265 265 264 264 264 264 264 264 264 264 264 264 263 264 264 264 264 263 264 265 267 268 270 271 271 270 269 268 268 269 265 260 259 262 270 277 280 281 282 287 288 286 286 291 298 303 307 308 308 308 308
236 237 239 240 241 241 242 242 242 242 243 243 244 245 246 246 247 248 249 250 251 252 253 254 256 257 258 258 259 259 261 263 263 263 264 265 265 265 265 264 263 263 263 263 263 263 264 264 264 265 265 265 265 265 264 264 264 264 265 267 268 268 267 267 268 271 270 262 258 261 267 271 276 281 284 287 293 294 293 293 295 299 303 304 304 304 305 305
235 236 237 239 240 241 242 242 242 242 243 243 244 245 246 247 248 248 249 250 251 252 253 254 255 257 258 258 259 259 260 262 262 262 262 263 264 265 264 263 263 262 262 262 262 262 263 263 264 265 265 266 266 266 265 264 264 263 263 263 264 264 264 265 268 270 269 264 263 267 271 275 279 283 287 292 296 296 297 298 299 300 300 300 300 300 300 300
235 235 236 237 238 240 241 242 242 242 243 243 244 244 245 246 247 248 249 250 251 252 253 254 255 256 257 258 259 259 260 261 262 262 262 262 263 263 263 263 262 261 261 261 262 262 262 263 263 264 265 265 266 266 265 265 264 264 263 261 261 260 260 263 267 269 268 268 270 273 276 279 283 285 290 294 294 294 295 295 296 297 296 296 297 297 298 299
235 235 236 236 237 238 239 241 242 242 243 243 244 244 245 246 247 248 249 250 251 252 253 253 255 256 257 259 259 258 259 260 261 261 261 262 263 263 262 262 261 261 261 260 261 261 262 262 262 262 263 265 265 265 265 265 264 264 263 262 259 257 257 260 265 267 270 273 275 278 280 281 283 286 290 291 290 290 290 290 291 292 293 293 294 295 296 299
236 236 236 236 236 237 238 239 241 242 243 243 244 245 245 246 247 247 248 249 250 251 252 253 254 255 257 258 258 258 259 259 261 261 262 262 263 263 263 262 261 261 260 260 260 260 261 261 261 262 262 263 264 264 264 264 264 264 263 262 259 256 257 259 261 264 268 273 276 279 281 282 283 285 286 286 286 287 287 287 288 288 289 290 291 293 296 298
237 237 237 237 237 237 237 238 239 240 242 243 244 245 246 246 247 248 249 249 250 251 252 253 254 255 257 258 259 259 259 260 261 261 261 262 262 263 264 263 262 261 261 261 260 260 260 260 260 261 261 262 262 262 262 264 265 264 262 260 257 257 258 258 260 264 267 271 274 276 279 280 282 282 282 281 283 284 285 285 285 285 285 285 287 289 293 297
238 238 239 238 238 238 238 238 238 239 240 241 243 244 245 246 247 249 250 250 251 252 252 253 254 255 257 259 260 261 260 261 261 261 261 262 263 263 264 264 263 262 262 261 261 261 260 260 260 261 261 261 260 260 262 265 265 262 259 258 258 259 260 260 261 265 266 268 272 274 275 279 282 281 280 280 282 283 282 282 282 281 281 282 284 289 293 296
238 239 240 239 239 238 238 238 238 238 238 239 241 242 243 245 246 247 249 250 250 251 252 253 254 255 257 260 262 261 261 261 261 261 261 262 262 263 263 264 263 263 262 262 261 261 261 261 261 261 261 260 259 261 263 264 262 259 258 258 259 261 261 262 263 264 266 268 270 271 274 279 283 281 279 280 280 280 280 279 279 279 280 283 286 291 294 295
238 239 240 241 240 239 239 239 239 239 239 239 240 241 242 243 244 245 247 248 249 249 250 251 253 254 257 259 260 260 260 260 261 261 261 261 261 262 262 263 263 263 262 262 261 261 261 261 261 262 260 259 260 263 262 261 260 259 258 259 260 261 262 263 264 265 267 268 268 270 274 278 280 279 280 279 277 276 277 277 278 280 282 284 288 292 292 293
237 238 240 241 241 240 240 240 240 240 239 239 240 241 241 242 243 244 245 246 247 247 248 249 251 252 254 256 258 259 259 259 259 259 259 260 260 260 261 261 262 262 263 262 261 262 261 261 262 261 259 260 263 262 259 259 259 258 259 260 260 261 263 264 266 267 267 268 269 272 276 278 278 280 280 278 276 275 275 275 277 279 281 285 288 289 289 290
236 238 239 240 241 241 240 240 240 240 240 240 240 241 242 242 243 244 244 245 246 246 247 248 249 250 251 254 256 257 258 258 258 258 258 258 258 258 259 260 260 261 262 261 262 262 261 262 261 260 261 263 263 260 259 258 259 258 258 258 259 261 263 266 268 268 268 270 271 274 276 276 279 281 278 276 276 275 274 273 274 277 281 285 285 285 286 287
234 236 238 239 240 240 240 240 241 241 241 241 241 242 242 243 242 243 244 245 246 247 247 247 248 250 251 252 254 256 257 258 258 257 257 257 257 257 258 258 258 260 260 261 262 261 261 261 261 261 263 264 261 260 260 259 259 258 257 257 258 260 263 268 269 269 271 271 270 274 277 275 278 281 278 274 273 273 273 273 274 278 280 280 280 280 282 284
233 233 234 237 239 240 240 240 241 241 241 242 243 243 243 243 243 243 243 244 245 246 247 247 248 249 250 251 253 255 256 257 257 258 258 257 256 256 255 256 257 258 259 260 260 260 260 260 260 263 264 262 261 261 260 260 259 258 257 257 257 259 263 268 269 270 272 272 271 274 275 273 275 278 277 274 272 272 273 273 274 276 277 276 275 276 278 282
237 235 234 233 235 237 238 239 240 241 241 242 243 243 244 244 244 244 244 243 245 246 246 247 248 249 251 252 252 253 255 256 257 258 258 257 256 254 254 255 255 256 258 259 258 258 260 260 262 264 263 261 261 260 260 260 260 259 257 257 256 259 263 266 268 269 270 272 272 272 272 271 273 276 275 273 272 272 272 272 273 275 275 275 274 275 277 280
238 238 237 236 235 235 235 235 236 239 240 241 243 243 243 244 244 244 244 243 244 247 247 247 248 249 250 251 252 253 254 255 256 257 257 256 256 254 254 254 254 255 256 256 256 257 259 261 262 262 261 260 260 260 261 260 259 259 258 258 258 261 264 264 265 267 269 271 271 271 270 269 271 274 272 271 271 271 272 272 274 275 275 274 274 275 277 279
235 236 237 238 239 239 238 237 236 236 236 237 239 242 243 244 244 243 243 241 241 248 251 248 248 249 250 251 251 252 251 253 255 256 256 256 256 255 253 254 254 254 255 255 255 256 258 259 260 260 261 260 261 261 260 258 257 259 260 260 260 261 263 263 263 265 268 270 270 270 268 266 270 272 270 270 271 272 274 274 275 275 275 275 275 276 277 278
232 233 234 236 239 241 242 243 243 241 239 237 237 238 239 241 242 242 242 239 235 245 254 253 250 250 253 253 251 251 250 251 255 254 254 255 255 255 254 254 254 254 255 254 253 256 259 258 258 260 261 261 261 261 260 258 258 260 261 260 260 261 262 264 265 266 267 268 270 271 267 265 269 270 270 270 270 273 274 275 275 276 276 276 276 276 278 279
233 233 233 234 237 239 241 242 244 245 246 245 242 241 239 239 239 240 241 239 232 240 253 255 253 251 254 255 254 252 251 251 253 253 253 254 254 254 254 254 255 254 254 254 254 256 258 258 258 260 260 261 261 260 260 260 260 260 260 260 262 262 263 264 265 267 268 268 271 271 267 265 267 268 269 270 271 272 273 274 275 276 276 276 277 278 279 279
237 236 234 234 235 237 238 239 241 244 246 248 248 247 246 243 242 240 240 238 231 236 249 254 255 254 253 255 256 255 252 251 253 253 253 253 254 255 255 254 254 254 254 255 255 255 257 259 259 259 259 260 260 260 261 262 261 260 260 261 262 262 264 265 266 267 268 269 272 270 267 266 266 267 269 269 270 272 272 273 275 275 276 277 278 279 280 281
237 238 237 236 236 236 236 237 240 242 243 245 246 247 248 248 246 244 243 241 233 233 243 251 256 256 254 254 256 256 254 253 253 253 253 254 254 254 254 254 255 255 256 256 255 255 257 258 258 259 259 260 260 260 262 262 261 260 260 260 261 263 264 265 267 268 269 271 271 268 266 266 265 267 269 268 268 270 272 273 274 275 277 278 279 280 281 282
236 237 238 238 238 237 237 237 240 242 242 242 243 244 245 245 247 246 245 245 239 234 238 245 252 256 255 255 255 256 256 256 255 254 254 255 254 254 255 255 255 256 256 256 255 255 255 256 257 258 259 259 260 262 262 263 262 261 260 261 261 263 264 266 267 268 269 271 268 265 266 267 266 266 267 268 268 269 271 272 274 276 277 278 279 280 282 283
237 237 238 239 238 238 237 237 239 241 242 242 242 242 242 243 244 244 243 246 245 238 236 240 246 252 255 255 255 254 255 256 256 255 255 255 255 256 256 256 256 256 256 256 257 255 254 255 257 258 259 260 261 261 262 262 263 262 262 262 263 264 265 266 267 268 268 267 263 264 267 268 267 264 263 266 268 269 271 273 275 276 277 278 280 281 283 284
238 238 238 238 238 238 237 237 238 240 241 243 243 243 242 242 241 241 241 244 245 242 240 241 242 246 250 253 254 254 254 254 255 256 255 255 256 257 257 258 258 258 257 257 257 256 256 256 257 258 259 260 260 261 262 263 263 263 263 264 265 265 266 266 267 267 266 264 264 266 269 269 268 265 262 263 266 268 271 274 275 277 278 279 281 283 284 285
238 239 239 239 238 238 238 237 237 238 240 242 244 243 242 241 240 240 241 241 242 241 242 243 242 242 245 249 252 254 254 254 255 255 255 254 254 256 258 259 259 259 258 257 258 258 258 258 258 259 259 260 261 262 263 264 264 265 265 266 266 266 266 266 265 265 265 266 266 268 271 272 270 267 263 262 263 267 270 272 274 276 277 279 281 282 283 284
238 239 240 239 239 238 238 238 238 238 239 241 243 243 242 240 238 238 239 239 241 241 242 244 244 243 243 245 249 251 253 254 255 255 255 254 254 254 256 258 259 260 260 259 259 259 259 259 260 260 261 262 263 264 264 265 265 265 266 266 267 268 266 264 264 265 265 266 267 269 271 272 270 267 266 264 264 265 267 270 272 274 276 277 279 280 281 282
239 240 240 239 238 238 238 239 239 239 239 241 242 243 242 241 238 237 238 240 241 241 242 243 244 244 243 244 246 249 252 253 255 256 256 257 256 256 256 257 258 260 260 260 259 259 259 260 261 262 263 263 264 264 265 265 265 266 266 268 268 267 266 265 265 266 267 267 268 270 270 270 268 267 267 267 267 267 268 269 271 273 274 275 276 278 279 281
239 242 242 239 237 238 238 239 240 240 240 241 242 242 242 243 241 237 237 239 240 240 241 241 241 243 244 245 246 247 250 252 254 256 258 259 260 260 261 261 260 260 261 261 259 259 259 259 260 262 263 263 264 264 265 265 266 266 267 268 267 266 267 268 268 267 268 268 269 270 270 269 268 267 268 268 268 269 270 271 272 273 273 274 276 278 280 282
239 241 243 241 239 238 238 239 240 241 241 242 242 242 242 242 241 238 237 238 240 241 241 241 241 243 244 245 246 247 248 250 253 256 259 260 262 263 264 264 263 263 263 262 260 259 259 258 259 260 261 263 264 264 265 266 266 266 266 266 265 266 268 269 269 269 270 270 269 269 269 269 269 269 269 269 270 271 272 273 273 273 274 275 277 279 281 283
239 240 242 242 240 239 239 239 240 241 242 243 242 240 240 241 241 240 238 238 240 243 243 242 242 242 243 243 245 247 248 249 252 255 258 260 262 262 263 263 264 264 264 264 262 261 260 259 259 261 262 263 263 264 265 266 266 265 264 264 265 268 270 270 271 271 271 270 269 268 268 269 270 271 271 271 272 273 274 274 274 275 276 277 279 280 282 284
238 240 240 241 241 241 241 240 240 241 242 243 243 240 239 241 242 242 240 239 240 242 244 244 244 242 242 243 244 246 247 249 251 253 256 259 260 260 261 262 262 262 263 263 263 262 262 262 261 261 261 261 263 264 265 264 264 264 264 266 268 270 270 271 271 271 271 271 271 269 269 270 272 273 274 275 276 276 276 276 276 277 278 279 280 281 283 285
237 240 241 240 240 241 242 242 241 241 242 242 242 240 239 240 241 242 242 241 240 242 243 244 245 244 243 243 244 245 247 247 249 251 254 256 258 258 259 260 261 261 261 262 264 265 265 265 263 262 262 263 264 264 264 264 265 266 267 268 269 270 270 270 271 272 272 272 271 272 273 274 275 276 276 277 277 278 277 277 278 279 279 280 280 282 283 285
237 239 240 241 241 239 241 243 242 241 242 242 241 239 238 239 241 243 244 245 244 243 244 245 245 246 245 244 245 246 246 246 247 249 251 253 255 256 256 257 258 259 261 263 265 266 266 264 263 263 264 265 264 264 264 265 266 267 268 269 270 271 270 270 270 271 271 272 274 276 277 277 277 277 277 277 277 277 277 277 278 279 279 279 280 281 283 283
238 238 239 241 242 241 241 243 244 243 243 242 242 240 238 237 239 242 244 246 247 246 245 245 246 247 247 246 246 246 246 246 246 247 249 250 252 253 254 255 256 258 261 263 264 265 264 264 264 264 264 263 263 263 265 266 268 270 271 272 271 270 269 270 271 272 274 276 278 279 278 278 277 276 276 276 276 276 276 277 277 277 277 278 280 281 281 282
239 240 239 240 241 242 242 243 244 244 243 243 243 241 239 237 238 240 242 244 247 248 247 247 247 248 248 248 248 248 247 246 245 246 248 248 250 252 254 255 256 258 260 262 263 263 263 264 264 264 263 263 264 266 268 270 271 271 270 269 268 270 272 274 275 276 277 278 280 280 280 279 278 277 277 277 277 277 277 276 276 276 278 279 280 280 280 281
239 240 240 240 240 241 243 244 244 245 245 244 244 243 242 240 239 240 242 244 246 247 248 248 248 249 249 250 249 249 249 248 247 247 248 248 249 251 253 255 256 257 259 260 261 262 263 264 264 264 264 265 266 267 268 268 268 266 266 268 271 274 276 277 278 277 278 280 281 280 280 280 279 278 278 278 278 277 278 278 278 278 279 280 279 279 280 281
239 240 240 240 240 240 242 244 246 246 246 246 245 245 244 242 241 241 242 243 244 246 247 247 247 247 248 249 250 250 250 250 250 248 248 248 249 250 252 254 255 256 257 258 259 261 262 263 264 265 265 265 265 266 266 265 265 267 269 272 274 274 276 277 278 279 281 282 280 280 280 280 279 279 278 278 278 278 279 279 280 280 280 279 279 280 281 283
238 239 240 240 240 239 240 242 244 245 246 246 246 246 245 244 244 244 244 244 245 246 247 247 247 247 247 248 249 249 249 249 250 249 248 248 249 250 251 253 254 255 257 258 259 260 261 262 263 265 265 264 264 264 264 265 266 268 270 271 272 274 276 278 279 281 283 280 279 282 282 281 280 279 278 278 279 279 279 280 280 280 279 279 280 281 282 283
236 238 239 240 241 240 240 241 243 245 246 247 248 248 247 247 246 247 247 247 247 248 248 249 248 249 250 250 250 250 249 249 250 250 249 249 249 250 251 252 253 254 256 258 259 259 259 260 261 263 264 264 264 264 264 265 267 268 270 271 274 276 277 278 280 281 281 280 282 284 282 281 280 279 279 280 279 280 280 281 281 280 279 279 280 280 281 283
235 236 238 240 241 241 241 241 243 245 245 247 248 249 249 248 248 248 249 250 250 250 250 250 251 252 253 253 253 252 251 251 251 251 251 251 251 251 251 252 253 254 255 257 258 259 259 260 261 261 262 263 264 265 265 265 267 268 270 272 274 276 277 279 279 279 280 281 282 281 279 279 280 279 279 279 279 279 280 280 281 281 280 280 279 280 281 283
234 235 237 239 240 241 241 241 242 243 244 245 246 247 248 249 249 250 250 251 251 251 252 253 253 254 254 254 254 254 254 254 254 253 252 252 251 251 251 252 253 254 255 257 258 259 260 260 261 261 262 263 264 265 266 266 267 268 269 271 273 275 277 278 278 279 279 280 279 277 277 278 279 279 278 278 278 278 279 280 280 280 280 280 280 280 282 283
234 234 236 238 240 241 241 241 242 243 244 244 245 247 248 249 249 250 251 251 251 252 253 253 254 253 253 253 253 253 254 255 255 254 253 253 253 253 254 254 254 255 256 257 259 260 261 261 262 262 263 264 265 266 267 268 268 268 268 270 273 275 276 277 277 277 277 277 276 276 277 279 278 277 277 277 277 279 280 280 281 281 282 282 282 283 285 286
233 234 235 236 238 240 240 240 241 242 243 244 245 246 248 249 249 250 250 250 250 251 251 252 253 252 252 252 252 254 255 255 255 255 254 254 254 254 254 254 254 255 256 257 259 261 262 263 264 264 265 266 267 268 268 269 269 268 269 272 274 275 274 274 273 273 274 276 276 277 278 278 277 276 277 278 279 280 280 282 283 284 285 285 286 287 288 289
233 233 234 236 237 238 239 240 241 242 243 244 245 246 247 247 247 247 248 249 249 250 251 251 251 251 252 252 253 254 255 254 254 254 254 254 254 254 254 255 255 256 256 258 259 260 262 263 264 265 266 267 267 268 269 269 268 269 273 274 274 272 272 271 272 273 275 277 278 278 279 279 278 278 279 280 281 281 283 284 286 287 288 288 289 289 291 293
Height
10779 10781 10783 10785 10786 10788 10789 10791 10792 10794 10795 10796 10797 10798 10800 10801 10803 10804 10805 10806 10807 10808 10808 10809 10810 10811 10812 10813 10814 10814 10815 10815 10816 10816 10816 10817 10817 10817 10818 10818 10819 10819 10819 10820 10820 10820 10820 10820 10820 10820 10820 10820 10820 10820 10820 10820 10820 10820 10820 10820 10820 10820 10820 10821 10821 10820 10820 10819 10818 10818 10818 10817 10816 10816 10816 10816 10815 10815 10815 10816 10816 10816 10816 10816 10816 10816 10816 10816
10775 10777 10778 10780 10782 10784 10785 10787 10788 10790 10791 10793 10794 10795 10796 10798 10799 10800 10802 10803 10804 10805 10805 10806 10807 10808 10809 10810 10811 10812 10812 10813 10813 10814 10814 10814 10815 10815 10816 10816 10817 10817 10817 10817 10818 10818 10818 10818 10818 10818 10818 10818 10818 10818 10818 10818 10818 10818 10818 10818 10818 10818 10819 10819 10819 10819 10818 10818 10817 10816 10816 10815 10815 10815 10815 10814 10813 10813 10814 10814 10814 10814 10814 10814 10814 10814 10814 10814
10770 10772 10774 10776 10777 10779 10781 10782 10784 10785 10787 10788 10790 10791 10792 10794 10795 10797 10798 10799 10800 10801 10802 10803 10804 10805 10806 10807 10808 10809 10810 10810 10811 10811 10811 10812 10812 10813 10813 10814 10814 10814 10814 10815 10815 10815 10815 10815 10815 10815 10816 10816 10816 10816 10816 10816 10816 10816 10817 10816 10816 10816 10817 10817 10817 10817 10817 10816 10816 10815 10814 10813 10813 10813 10813 10813 10812 10812 10812 10812 10812 10812 10812 10812 10812 10812 10812 10812
10765 10768 10770 10771 10773 10775 10776 10778 10779 10781 10783 10784 10785 10787 10788 10790 10792 10793 10794 10796 10796 10798 10799 10800 10801 10802 10803 10804 10805 10806 10807 10807 10808 10808 10809 10809 10809 10810 10810 10811 10811 10812 10812 10812 10812 10813 10813 10813 10813 10813 10813 10814 10814 10814 10814 10814 10814 10814 10815 10814 10814 10814 10814 10815 10815 10815 10815 10815 10814 10814 10813 10812 10811 10811 10811 10811 10810 10810 10810 10810 10810 10810 10810 10810 10810 10809 10809 10809
10761 10763 10765 10767 10768 10770 10772 10773 10775 10777 10778 10780 10781 10782 10784 10786 10788 10789 10791 10792 10793 10794 10795 10796 10798 10799 10800 10801 10802 10803 10804 10804 10805 10805 10806 10806 10807 10807 10807 10808 10808 10809 10809 10809 10810 10810 10810 10810 10810 10810 10810 10811 10812 10812 10812 10812 10812 10812 10812 10812 10812 10812 10812 10812 10812 10813 10813 10813 10813 10812 10811 10810 10810 10809 10810 10809 10809 10808 10808 10808 10808 10808 10808 10808 10807 10807 10806 10806
10756 10758 10760 10762 10764 10766 10767 10769 10771 10772 10774 10775 10777 10778 10780 10782 10784 10785 10787 10788 10789 10790 10791 10793 10794 10795 10796 10797 10798 10800 10801 10801 10801 10802 10803 10803 10804 10804 10804 10805 10805 10806 10806 10806 10807 10807 10807 10807 10808 10808 10808 10808 10809 10809 10809 10809 10809 10809 10810 10810 10809 10809 10810 10810 10810 10810 10811 10811 10811 10810 10809 10808 10807 10807 10808 10808 10808 10807 10807 10807 10806 10805 10805 10805 10805 10805 10804 10803
10751 10753 10755 10757 10759 10761 10763 10765 10766 10768 10769 10771 10773 10774 10776 10778 10779 10781 10783 10784 10785 10786 10788 10789 10790 10791 10792 10794 10795 10796 10797 10797 10798 10799 10799 10800 10801 10801 10801 10802 10802 10803 10803 10803 10804 10804 10804 10804 10805 10805 10805 10805 10806 10806 10806 10806 10806 10807 10807 10807 10807 10807 10807 10807 10807 10807 10808 10809 10809 10808 10807 10806 10805 10805 10805 10806 10805 10805 10805 10805 10804 10803 10803 10802 10802 10802 10801 10801
10746 10748 10751 10752 10754 10756 10758 10760 10762 10763 10765 10767 10768 10770 10772 10774 10776 10778 10779 10781 10782 10783 10784 10785 10786 10788 10789 10790 10791 10793 10794 10794 10795 10796 10796 10797 10797 10798 10798 10798 10799 10800 10800 10800 10801 10801 10801 10801 10802 10802 10802 10802 10803 10803 10803 10803 10804 10804 10804 10804 10804 10804 10804 10804 10804 10805 10806 10806 10806 10806 10805 10804 10803 10803 10803 10803 10802 10802 10802 10802 10802 10801 10800 10799 10799 10798 10798 10798
10740 10743 10745 10747 10749 10751 10754 10755 10757 10759 10761 10763 10764 10766 10768 10770 10772 10774 10775 10777 10778 10779 10780 10781 10783 10784 10785 10786 10787 10789 10790 10790 10792 10793 10793 10794 10794 10794 10795 10795 10796 10796 10797 10797 10797 10797 10798 10798 10798 10799 10799 10799 10799 10800 10800 10801 10801 10801 10801 10802 10802 10802 10802 10801 10801 10802 10804 10804 10804 10803 10803 10803 10801 10800 10800 10800 10800 10799 10799 10799 10799 10799 10798 10797 10796 10795 10795 10795
10735 10737 10740 10742 10744 10746 10748 10750 10752 10754 10756 10758 10760 10762 10764 10766 10767 10769 10771 10773 10774 10775 10777 10778 10779 10780 10781 10782 10783 10786 10787 10787 10788 10789 10790 10791 10791 10791 10791 10792 10792 10793 10794 10794 10794 10794 10795 10795 10795 10796 10796 10796 10796 10797 10797 10798 10798 10799 10799 10799 10799 10799 10799 10798 10798 10799 10801 10801 10801 10801 10801 10800 10799 10798 10798 10798 10797 10796 10796 10796 10796 10796 10795 10795 10794 10793 10793 10792
10729 10731 10734 10736 10738 10741 10743 10745 10747 10749 10751 10753 10755 10758 10760 10761 10763 10765 10767 10768 10770 10771 10772 10774 10775 10776 10777 10778 10779 10782 10783 10783 10784 10786 10787 10787 10788 10788 10788 10789 10789 10789 10790 10790 10791 10791 10791 10792 10792 10793 10793 10793 10793 10793 10794 10795 10795 10796 10796 10797 10796 10796 10796 10795 10796 10797 10798 10798 10798 10798 10798 10798 10797 10796 10795 10795 10795 10794 10794 10793 10793 10793 10793 10792 10792 10791 10791 10790
10723 10726 10728 10730 10732 10735 10737 10739 10742 10744 10746 10748 10751 10753 10755 10757 10759 10761 10762 10764 10765 10767 10768 10769 10771 10772 10772 10773 10775 10778 10779 10779 10780 10782 10783 10784 10784 10784 10785 10785 10786 10786 10786 10787 10787 10788 10788 10789 10789 10790 10789 10789 10790 10790 10791 10792 10792 10793 10793 10794 10793 10793 10793 10792 10793 10794 10795 10795 10795 10796 10796 10795 10794 10793 10793 10793 10792 10792 10791 10791 10791 10791 10790 10790 10789 10789 10788 10788
10718 10720 10722 10725 10727 10729 10731 10734 10736 10738 10740 10743 10746 10748 10750 10752 10754 10756 10758 10759 10761 10762 10764 10765 10766 10767 10768 10769 10770 10773 10774 10775 10776 10777 10779 10780 10780 10781 10781 10782 10782 10783 10783 10783 10784 10784 10785 10785 10786 10786 10786 10786 10786 10787 10788 10788 10789 10790 10790 10790 10790 10789 10790 10790 10791 10791 10792 10791 10792 10792 10792 10792 10792 10791 10790 10790 10790 10789 10789 10789 10789 10788 10788 10787 10787 10786 10785 10785
10713 10715 10717 10719 10721 10723 10725 10727 10730 10732 10735 10738 10740 10742 10745 10747 10749 10751 10753 10755 10756 10758 10759 10761 10762 10763 10764 10764 10766 10769 10770 10771 10772 10773 10775 10775 10776 10777 10777 10778 10779 10779 10779 10780 10780 10781 10782 10782 10783 10783 10783 10783 10783 10784 10785 10785 10786 10787 10787 10786 10785 10786 10787 10788 10789 10789 10789 10788 10788 10789 10789 10789 10789 10789 10788 10788 10787 10787 10786 10787 10786 10786 10785 10784 10784 10783 10782 10782
10708 10710 10712 10714 10716 10718 10720 10722 10724 10726 10729 10732 10735 10737 10740 10742 10744 10746 10748 10750 10751 10753 10755 10756 10757 10759 10759 10759 10761 10764 10766 10767 10768 10769 10770 10771 10772 10773 10773 10774 10775 10775 10776 10776 10777 10777 10778 10779 10779 10779 10779 10779 10779 10781 10782 10783 10783 10784 10783 10781 10781 10782 10784 10785 10786 10786 10786 10786 10785 10785 10785 10785 10786 10786 10786 10785 10784 10784 10784 10783 10783 10783 10782 10782 10781 10780 10780 10779
10702 10704 10706 10709 10711 10713 10714 10716 10718 10720 10723 10727 10729 10731 10734 10736 10738 10740 10742 10744 10746 10748 10750 10752 10753 10754 10755 10755 10757 10760 10761 10763 10764 10765 10765 10766 10768 10769 10769 10770 10770 10771 10772 10772 10773 10774 10774 10775 10775 10775 10775 10775 10776 10777 10779 10780 10780 10780 10779 10777 10777 10779 10781 10782 10783 10783 10783 10783 10782 10781 10781 10781 10783 10783 10782 10782 10781 10780 10780 10780 10780 10779 10779 10779 10778 10777 10777 10776
10696 10698 10700 10703 10705 10707 10709 10711 10713 10714 10717 10721 10723 10725 10728 10730 10732 10734 10736 10738 10741 10743 10745 10747 10747 10750 10752 10752 10753 10754 10756 10759 10759 10760 10761 10762 10764 10764 10765 10766 10766 10767 10767 10768 10769 10769 10771 10771 10771 10771 10770 10770 10772 10775 10777 10777 10776 10776 10774 10773 10774 10776 10777 10778 10779 10780 10780 10780 10778 10778 10777 10776 10778 10778 10778 10778 10777 10776 10776 10776 10776 10776 10775 10775 10774 10774 10774 10773
10689 10692 10694 10697 10699 10701 10703 10705 10706 10708 10712 10715 10717 10719 10722 10724 10726 10728 10730 10732 10734 10736 10739 10741 10742 10746 10749 10747 10747 10749 10752 10754 10754 10756 10757 10758 10759 10759 10761 10761 10762 10762 10763 10764 10765 10766 10767 10767 10768 10767 10765 10765 10769 10773 10774 10773 10772 10772 10771 10770 10771 10772 10773 10774 10775 10776 10776 10776 10775 10774 10773 10772 10773 10774 10774 10774 10773 10773 10772 10772 10772 10771 10771 10771 10771 10770 10770 10769
10683 10686 10688 10690 10693 10696 10697 10699 10701 10703 10707 10709 10711 10713 10716 10718 10721 10723 10724 10726 10728 10730 10733 10736 10738 10741 10743 10741 10742 10744 10746 10748 10749 10751 10752 10752 10753 10754 10755 10756 10757 10757 10758 10759 10760 10762 10763 10763 10764 10761 10759 10763 10768 10769 10769 10768 10768 10768 10767 10767 10767 10768 10768 10769 10772 10773 10773 10772 10771 10770 10769 10767 10768 10770 10770 10769 10769 10769 10769 10768 10767 10767 10767 10766 10766 10766 10766 10765
10677 10679 10682 10684 10686 10689 10691 10693 10695 10697 10701 10704 10706 10708 10711 10713 10714 10716 10718 10720 10722 10725 10728 10732 10733 10735 10737 10736 10736 10738 10740 10742 10744 10745 10746 10747 10747 10749 10750 10751 10752 10752 10754 10754 10756 10757 10758 10760 10758 10753 10756 10762 10764 10764 10764 10764 10764 10764 10764 10764 10764 10763 10763 10764 10768 10769 10768 10769 10767 10766 10766 10763 10762 10765 10766 10765 10764 10765 10765 10764 10763 10763 10763 10763 10762 10762 10762 10761
10669 10673 10676 10678 10680 10682 10685 10688 10689 10691 10695 10699 10700 10703 10705 10705 10707 10710 10712 10714 10717 10720 10724 10726 10729 10730 10731 10731 10732 10733 10735 10737 10739 10739 10740 10741 10742 10744 10744 10745 10746 10747 10748 10750 10752 10752 10754 10756 10751 10748 10755 10758 10758 10759 10759 10760 10760 10760 10760 10760 10760 10759 10758 10760 10763 10764 10764 10765 10763 10762 10762 10759 10758 10760 10761 10760 10760 10760 10760 10760 10759 10759 10759 10759 10758 10758 10758 10757
10662 10666 10669 10671 10674 10676 10679 10681 10683 10685 10690 10693 10694 10696 10698 10698 10701 10704 10706 10709 10713 10715 10718 10721 10724 10725 10725 10726 10728 10728 10730 10732 10732 10733 10734 10735 10737 10738 10738 10739 10741 10742 10744 10746 10746 10747 10750 10750 10745 10746 10752 10752 10753 10755 10755 10755 10755 10755 10756 10757 10756 10755 10754 10756 10758 10759 10760 10761 10760 10758 10758 10756 10754 10756 10756 10755 10756 10755 10756 10755 10754 10754 10754 10754 10754 10754 10753 10753
10656 10660 10661 10664 10667 10668 10672 10675 10677 10680 10684 10686 10687 10688 10690 10692 10695 10698 10700 10705 10708 10709 10713 10716 10718 10720 10720 10721 10722 10723 10725 10726 10726 10727 10728 10729 10730 10731 10733 10733 10735 10738 10740 10740 10740 10743 10746 10744 10741 10744 10747 10747 10749 10750 10750 10751 10750 10751 10752 10753 10752 10750 10752 10753 10753 10754 10755 10756 10756 10755 10755 10753 10750 10752 10751 10750 10750 10750 10750 10750 10749 10750 10749 10749 10749 10749 10748 10748
10649 10652 10655 10658 10659 10662 10664 10666 10671 10674 10676 10679 10679 10680 10683 10686 10688 10691 10693 10699 10704 10706 10708 10711 10713 10714 10714 10715 10716 10718 10720 10719 10720 10721 10721 10722 10723 10725 10727 10727 10730 10734 10733 10732 10735 10740 10742 10739 10738 10738 10740 10742 10744 10744 10745 10746 10745 10746 10747 10748 10747 10746 10748 10749 10749 10750 10751 10752 10751 10750 10752 10749 10745 10747 10746 10745 10745 10745 10745 10745 10744 10744 10744 10744 10744 10743 10742 10742
10640 10643 10648 10651 10654 10656 10657 10661 10667 10666 10667 10669 10670 10672 10676 10679 10681 10683 10686 10692 10702 10703 10702 10705 10708 10709 10708 10709 10712 10712 10711 10713 10715 10714 10714 10715 10716 10718 10721 10722 10725 10727 10725 10726 10731 10735 10736 10734 10732 10732 10734 10737 10739 10740 10739 10739 10740 10742 10743 10743 10742 10742 10743 10744 10744 10745 10747 10747 10745 10745 10749 10747 10741 10740 10741 10740 10740 10740 10740 10740 10739 10739 10738 10738 10737 10737 10736 10736
10630 10634 10639 10643 10647 10649 10652 10660 10661 10658 10660 10660 10661 10665 10668 10671 10673 10676 10678 10685 10699 10701 10696 10699 10703 10705 10705 10704 10705 10703 10706 10711 10708 10705 10707 10707 10708 10711 10714 10717 10719 10720 10719 10720 10727 10732 10730 10727 10726 10727 10729 10731 10733 10734 10731 10732 10736 10739 10738 10736 10737 10738 10738 10739 10740 10741 10743 10743 10741 10740 10743 10744 10739 10734 10734 10736 10735 10735 10735 10734 10734 10733 10733 10732 10731 10730 10730 10730
10623 10627 10631 10635 10640 10642 10648 10654 10651 10651 10654 10652 10655 10659 10660 10662 10665 10668 10670 10677 10695 10699 10692 10692 10696 10700 10700 10698 10698 10697 10702 10706 10698 10697 10700 10700 10702 10705 10708 10712 10711 10712 10713 10715 10723 10726 10722 10720 10722 10723 10724 10726 10727 10726 10724 10727 10733 10735 10732 10730 10732 10732 10732 10734 10735 10736 10738 10738 10738 10736 10735 10740 10739 10730 10728 10730 10729 10729 10729 10728 10728 10727 10726 10725 10724 10724 10724 10723
10616 10619 10623 10627 10631 10635 10641 10644 10643 10645 10645 10644 10650 10653 10654 10656 10658 10661 10661 10672 10693 10696 10688 10687 10688 10692 10693 10692 10691 10691 10696 10697 10690 10692 10693 10693 10697 10700 10702 10705 10704 10705 10708 10711 10717 10718 10715 10716 10717 10717 10719 10720 10720 10719 10719 10722 10726 10729 10727 10725 10726 10726 10727 10728 10729 10731 10733 10734 10736 10731 10727 10734 10737 10727 10723 10725 10723 10722 10722 10722 10721 10721 10719 10719 10718 10717 10717 10716
10608 10611 10616 10619 10624 10628 10632 10637 10638 10637 10635 10636 10640 10643 10646 10648 10652 10654 10655 10670 10690 10690 10684 10684 10682 10683 10685 10684 10684 10684 10687 10688 10686 10687 10686 10687 10692 10693 10696 10697 10698 10701 10703 10705 10709 10710 10710 10710 10709 10711 10713 10713 10712 10713 10715 10716 10719 10722 10721 10720 10720 10720 10721 10722 10725 10726 10727 10732 10732 10724 10720 10727 10732 10727 10718 10717 10718 10715 10715 10715 10714 10714 10713 10712 10711 10710 10709 10709
10600 10603 10607 10611 10617 10622 10626 10632 10632 10626 10625 10627 10629 10632 10635 10639 10643 10643 10651 10672 10685 10683 10682 10679 10676 10675 10675 10676 10677 10677 10679 10679 10680 10681 10681 10683 10685 10687 10690 10691 10693 10696 10696 10698 10702 10702 10703 10703 10703 10705 10706 10706 10707 10708 10709 10709 10712 10714 10715 10715 10714 10714 10716 10717 10720 10720 10722 10729 10725 10716 10715 10720 10728 10727 10714 10709 10710 10708 10708 10708 10707 10707 10706 10705 10704 10703 10702 10702
10591 10594 10597 10604 10611 10614 10619 10624 10622 10617 10616 10617 10619 10621 10625 10631 10632 10634 10653 10673 10675 10676 10679 10673 10670 10670 10668 10668 10669 10669 10671 10671 10672 10674 10675 10677 10678 10682 10684 10684 10687 10688 10690 10693 10693 10693 10696 10697 10698 10699 10700 10701 10701 10701 10702 10703 10705 10706 10708 10708 10708 10709 10711 10712 10715 10714 10716 10721 10716 10709 10711 10715 10722 10723 10712 10705 10703 10700 10701 10700 10700 10700 10698 10697 10696 10695 10695 10694
10582 10585 10589 10596 10601 10606 10612 10615 10611 10607 10607 10609 10609 10612 10618 10619 10621 10636 10658 10665 10662 10669 10674 10668 10666 10665 10660 10660 10660 10661 10663 10663 10665 10667 10669 10672 10674 10676 10677 10678 10680 10681 10685 10686 10684 10685 10690 10691 10692 10693 10693 10693 10693 10694 10696 10697 10698 10699 10701 10702 10701 10703 10705 10707 10708 10707 10708 10711 10709 10706 10707 10710 10715 10713 10707 10704 10699 10694 10694 10693 10692 10692 10689 10688 10687 10686 10686 10684
10573 10576 10580 10587 10593 10599 10604 10604 10600 10598 10600 10600 10597 10602 10606 10606 10620 10644 10655 10652 10652 10660 10664 10662 10660 10657 10653 10653 10653 10653 10654 10656 10659 10660 10662 10665 10668 10671 10672 10673 10674 10674 10677 10678 10677 10680 10684 10685 10685 10685 10686 10686 10686 10688 10689 10690 10691 10693 10695 10695 10695 10697 10698 10700 10699 10698 10701 10703 10703 10702 10702 10706 10708 10703 10699 10699 10696 10692 10690 10688 10687 10685 10682 10681 10679 10678 10677 10676
10564 10567 10571 10578 10585 10590 10594 10594 10591 10590 10591 10588 10587 10592 10593 10600 10626 10644 10642 10641 10646 10649 10653 10654 10652 10649 10647 10647 10647 10646 10647 10650 10652 10653 10655 10658 10662 10665 10665 10665 10666 10666 10668 10670 10672 10673 10675 10678 10678 10677 10679 10680 10680 10681 10682 10683 10685 10687 10688 10687 10689 10689 10688 10690 10691 10691 10695 10695 10696 10698 10698 10700 10700 10694 10690 10690 10690 10689 10686 10684 10682 10680 10677 10675 10672 10671 10670 10670
10555 10557 10561 10568 10575 10581 10585 10585 10582 10580 10579 10579 10579 10578 10583 10603 10629 10636 10632 10634 10636 10637 10641 10641 10640 10641 10641 10642 10642 10642 10642 10644 10645 10645 10648 10652 10655 10658 10659 10659 10659 10659 10659 10661 10664 10665 10668 10673 10672 10669 10672 10673 10673 10674 10675 10676 10679 10680 10681 10682 10683 10679 10677 10681 10684 10685 10687 10688 10691 10692 10691 10692 10690 10687 10685 10683 10681 10680 10679 10679 10677 10674 10671 10667 10665 10664 10664 10664
10544 10546 10551 10559 10569 10575 10576 10575 10572 10569 10569 10569 10566 10568 10585 10610 10624 10624 10624 10623 10622 10625 10628 10627 10629 10633 10636 10638 10638 10637 10637 10637 10637 10638 10642 10645 10648 10651 10653 10653 10651 10651 10651 10651 10653 10658 10661 10666 10665 10663 10665 10665 10665 10667 10667 10669 10672 10673 10675 10675 10672 10668 10670 10675 10677 10678 10678 10680 10686 10685 10683 10683 10681 10681 10681 10676 10673 10672 10671 10671 10669 10665 10661 10658 10657 10656 10656 10656
10534 10537 10543 10552 10562 10565 10564 10564 10562 10558 10558 10557 10555 10567 10591 10607 10610 10612 10614 10613 10612 10615 10615 10616 10622 10626 10629 10632 10632 10631 10630 10630 10632 10634 10636 10638 10641 10646 10646 10643 10642 10643 10643 10640 10644 10650 10653 10656 10658 10656 10657 10658 10658 10659 10661 10663 10665 10666 10667 10665 10660 10661 10666 10667 10668 10671 10671 10673 10679 10678 10675 10675 10673 10674 10673 10669 10667 10666 10664 10663 10659 10654 10651 10649 10649 10648 10647 10647
10525 10528 10532 10543 10551 10554 10554 10553 10550 10548 10548 10544 10545 10566 10590 10596 10599 10604 10605 10605 10605 10603 10603 10609 10615 10617 10619 10623 10625 10624 10622 10625 10629 10629 10630 10631 10635 10640 10639 10634 10634 10635 10632 10631 10636 10642 10643 10646 10650 10650 10650 10651 10650 10652 10655 10656 10655 10655 10656 10654 10654 10657 10660 10659 10660 10664 10663 10664 10670 10671 10669 10668 10667 10666 10664 10662 10660 10658 10656 10652 10648 10644 10643 10641 10640 10639 10638 10638
10515 10513 10520 10535 10542 10543 10543 10542 10539 10536 10534 10531 10540 10567 10587 10589 10592 10593 10593 10597 10596 10592 10596 10602 10605 10606 10610 10614 10617 10616 10616 10620 10623 10622 10624 10626 10629 10634 10632 10627 10627 10627 10623 10622 10626 10632 10634 10637 10642 10643 10641 10641 10643 10646 10647 10646 10644 10644 10647 10649 10649 10651 10652 10651 10651 10653 10655 10656 10659 10661 10662 10663 10661 10657 10655 10654 10652 10649 10645 10641 10636 10634 10634 10633 10631 10629 10628 10629
10505 10502 10513 10528 10531 10531 10531 10527 10523 10520 10519 10524 10540 10566 10580 10579 10580 10581 10581 10585 10585 10584 10590 10593 10593 10597 10604 10607 10608 10609 10610 10613 10616 10616 10618 10621 10623 10626 10625 10621 10619 10617 10613 10613 10619 10625 10626 10627 10631 10632 10632 10635 10638 10638 10636 10635 10636 10638 10641 10643 10642 10642 10642 10643 10643 10644 10644 10645 10648 10651 10654 10658 10655 10650 10648 10645 10642 10639 10633 10629 10626 10625 10625 10623 10621 10620 10620 10619
10493 10493 10506 10516 10515 10520 10520 10508 10505 10510 10512 10520 10540 10561 10570 10568 10569 10571 10572 10573 10575 10578 10583 10584 10586 10590 10595 10598 10600 10601 10601 10605 10609 10610 10612 10616 10617 10618 10617 10613 10610 10607 10605 10608 10614 10617 10617 10616 10619 10623 10626 10629 10629 10627 10626 10628 10631 10631 10633 10635 10635 10633 10632 10633 10635 10635 10634 10635 10639 10641 10646 10651 10648 10643 10641 10637 10632 10629 10623 10619 10617 10616 10615 10613 10612 10612 10611 10609
10480 10484 10499 10505 10503 10509 10507 10494 10496 10505 10506 10518 10540 10553 10554 10556 10559 10561 10561 10561 10563 10568 10572 10576 10579 10581 10584 10589 10591 10592 10593 10596 10601 10603 10606 10609 10609 10608 10607 10604 10602 10602 10600 10603 10608 10609 10605 10606 10610 10614 10618 10618 10617 10619 10620 10622 10624 10624 10627 10628 10624 10621 10621 10622 10626 10628 10626 10627 10631 10632 10635 10641 10638 10634 10632 10628 10623 10619 10615 10612 10609 10606 10604 10604 10605 10603 10600 10598
10470 10476 10489 10493 10492 10496 10492 10483 10487 10492 10499 10519 10534 10533 10535 10544 10549 10549 10551 10552 10554 10559 10563 10568 10572 10573 10575 10579 10581 10583 10585 10587 10591 10596 10598 10600 10601 10601 10598 10596 10597 10597 10595 10597 10600 10598 10595 10596 10600 10604 10608 10609 10610 10614 10615 10616 10618 10618 10617 10614 10610 10612 10613 10614 10618 10619 10619 10622 10623 10620 10624 10629 10627 10622 10620 10618 10613 10609 10606 10603 10600 10597 10597 10598 10596 10593 10590 10589
10464 10468 10473 10479 10483 10483 10475 10471 10478 10486 10500 10516 10517 10514 10525 10537 10539 10542 10546 10547 10548 10550 10553 10558 10563 10564 10565 10567 10569 10574 10576 10578 10584 10588 10588 10590 10594 10594 10590 10590 10591 10590 10589 10590 10591 10588 10585 10587 10590 10593 10598 10602 10604 10607 10608 10608 10606 10604 10604 10604 10605 10607 10605 10605 10607 10606 10610 10617 10613 10609 10614 10616 10613 10610 10609 10607 10601 10596 10595 10592 10589 10589 10589 10589 10586 10583 10582 10581
10454 10456 10459 10464 10469 10468 10464 10468 10478 10484 10493 10500 10499 10504 10516 10523 10528 10536 10538 10535 10536 10539 10541 10547 10552 10553 10553 10555 10561 10566 10568 10571 10575 10578 10579 10583 10586 10585 10582 10582 10583 10582 10581 10580 10581 10581 10578 10578 10581 10584 10590 10595 10596 10597 10598 10596 10592 10593 10598 10599 10599 10598 10596 10596 10596 10596 10603 10608 10603 10601 10604 10603 10601 10599 10596 10594 10589 10585 10584 10582 10579 10580 10579 10577 10576 10575 10574 10571
10442 10443 10445 10448 10452 10456 10460 10465 10468 10471 10478 10484 10486 10494 10503 10511 10522 10527 10523 10523 10528 10531 10533 10537 10540 10541 10543 10548 10555 10558 10561 10562 10562 10565 10572 10575 10576 10575 10573 10572 10574 10574 10572 10571 10573 10573 10569 10570 10574 10576 10579 10583 10584 10586 10588 10586 10584 10588 10592 10591 10590 10590 10588 10586 10586 10590 10594 10592 10593 10597 10594 10590 10591 10586 10581 10581 10578 10574 10574 10572 10570 10570 10568 10567 10567 10565 10563 10560
10428 10430 10434 10437 10439 10445 10454 10457 10457 10463 10474 10477 10478 10485 10493 10501 10511 10511 10510 10517 10524 10524 10523 10524 10528 10533 10538 10544 10547 10547 10550 10551 10551 10557 10563 10564 10566 10566 10564 10563 10564 10564 10565 10563 10561 10561 10560 10563 10568 10568 10567 10570 10572 10574 10578 10578 10578 10581 10583 10584 10584 10582 10580 10578 10579 10582 10580 10577 10587 10592 10581 10577 10581 10572 10567 10570 10566 10562 10563 10561 10560 10560 10559 10558 10557 10554 10552 10548
10416 10420 10426 10427 10427 10433 10445 10451 10452 10459 10467 10466 10466 10474 10480 10486 10494 10499 10504 10510 10512 10511 10511 10513 10522 10531 10534 10534 10532 10532 10537 10539 10543 10551 10554 10554 10555 10554 10552 10552 10552 10554 10556 10552 10549 10549 10550 10555 10560 10558 10556 10559 10560 10562 10567 10569 10570 10573 10575 10577 10577 10574 10572 10570 10569 10570 10567 10568 10578 10578 10567 10569 10572 10561 10556 10558 10553 10550 10551 10550 10551 10551 10550 10549 10547 10544 10540 10536
10405 10412 10417 10417 10417 10424 10435 10443 10444 10446 10452 10453 10455 10461 10466 10473 10483 10490 10494 10495 10496 10500 10502 10505 10517 10525 10523 10519 10516 10517 10523 10530 10536 10542 10542 10540 10539 10539 10540 10542 10543 10544 10543 10541 10539 10538 10540 10546 10549 10547 10547 10549 10550 10552 10556 10558 10561 10565 10566 10568 10569 10568 10565 10560 10558 10557 10556 10559 10564 10559 10555 10563 10564 10552 10546 10545 10540 10539 10540 10540 10541 10541 10540 10539 10536 10532 10527 10523
10397 10405 10408 10408 10410 10415 10424 10431 10432 10433 10440 10443 10444 10451 10457 10464 10474 10480 10480 10480 10485 10491 10492 10496 10508 10512 10509 10506 10502 10504 10514 10524 10526 10527 10526 10525 10526 10529 10530 10531 10532 10532 10530 10529 10529 10527 10529 10536 10538 10537 10535 10538 10542 10544 10544 10547 10550 10552 10556 10560 10563 10562 10556 10550 10548 10545 10543 10547 10550 10544 10544 10555 10555 10542 10534 10533 10531 10530 10529 10529 10530 10529 10529 10527 10523 10518 10514 10510
10389 10395 10398 10399 10401 10405 10410 10417 10420 10422 10428 10431 10435 10443 10449 10455 10466 10469 10466 10468 10474 10478 10480 10487 10496 10496 10492 10490 10490 10498 10512 10516 10511 10511 10511 10512 10515 10518 10516 10516 10519 10521 10519 10519 10519 10518 10520 10523 10525 10525 10523 10528 10535 10532 10532 10536 10534 10535 10547 10557 10556 10552 10545 10538 10536 10534 10533 10536 10535 10530 10534 10543 10539 10528 10523 10523 10522 10519 10518 10518 10518 10517 10515 10512 10508 10503 10499 10496
10379 10384 10388 10390 10391 10394 10398 10404 10408 10410 10415 10421 10428 10435 10438 10445 10454 10455 10450 10454 10462 10466 10470 10478 10483 10480 10477 10479 10485 10497 10504 10500 10495 10497 10498 10499 10502 10504 10503 10504 10508 10510 10511 10511 10509 10509 10510 10511 10513 10513 10511 10516 10523 10521 10522 10522 10514 10523 10547 10552 10542 10535 10529 10524 10525 10527 10526 10524 10519 10516 10522 10526 10520 10515 10513 10511 10507 10506 10507 10506 10504 10502 10501 10497 10493 10488 10484 10480